Waarnemingen

Advertentie
Mijn weer
Falsterbo, Zweden (2616): temperatuur & dauwpunt: 08.12.2018 11:00:00 - 14.12.2018 11:00:00 (CET)Falsterbo, Zweden (2616): windsnelheid: 08.12.2018 11:00:00 - 14.12.2018 11:00:00 (CET)Falsterbo, Zweden (2616): windrichting: 08.12.2018 11:00:00 - 14.12.2018 11:00:00 (CET)Falsterbo, Zweden (2616): luchtdruk: 08.12.2018 11:00:00 - 14.12.2018 11:00:00 (CET)Falsterbo, Zweden (2616): zicht: 08.12.2018 11:00:00 - 14.12.2018 11:00:00 (CET)
Datum & Tijd tt [°C] td [°C] ff [km/u] ff [kn] dd ppp [hPa] vv [km]
14.12.2018 11:00:00 - - - - - - -
14.12.2018 10:00:00 1,6 0,7 14 8 NO 1028,9 50
14.12.2018 09:00:00 - - - - - - -
14.12.2018 08:00:00 - - - - - - -
14.12.2018 07:00:00 1,4 0,4 14 8 ONO 1027,7 50
14.12.2018 06:00:00 - - - - - - -
14.12.2018 05:00:00 - - - - - - -
14.12.2018 04:00:00 - - - - - - -
14.12.2018 03:00:00 - - - - - - -
14.12.2018 02:00:00 - - - - - - -
14.12.2018 01:00:00 - - - - - - -
14.12.2018 00:00:00 - - - - - - -
13.12.2018 23:00:00 - - - - - - -
13.12.2018 22:00:00 - - - - - - -
13.12.2018 21:00:00 - - - - - - -
13.12.2018 20:00:00 - - - - - - -
13.12.2018 19:00:00 1,1 -1,0 22 12 ONO 1027,4 82
13.12.2018 18:00:00 - - - - - - -
13.12.2018 17:00:00 - - - - - - -
13.12.2018 16:00:00 2,0 -0,3 22 12 NO 1027,5 35
13.12.2018 15:00:00 - - - - - - -
13.12.2018 14:00:00 - - - - - - -
13.12.2018 13:00:00 2,3 0,0 22 12 ONO 1027,7 50
13.12.2018 12:00:00 - - - - - - -
13.12.2018 11:00:00 - - - - - - -
13.12.2018 10:00:00 1,7 -0,6 18 10 ONO 1028,5 40
13.12.2018 09:00:00 - - - - - - -
13.12.2018 08:00:00 - - - - - - -
13.12.2018 07:00:00 0,9 -0,4 18 10 NO 1028,2 50
13.12.2018 06:00:00 - - - - - - -
13.12.2018 05:00:00 - - - - - - -
13.12.2018 04:00:00 - - - - - - -
13.12.2018 03:00:00 - - - - - - -
13.12.2018 02:00:00 - - - - - - -
13.12.2018 01:00:00 - - - - - - -
13.12.2018 00:00:00 - - - - - - -
12.12.2018 23:00:00 - - - - - - -
12.12.2018 22:00:00 - - - - - - -
12.12.2018 21:00:00 - - - - - - -
12.12.2018 20:00:00 - - - - - - -
12.12.2018 19:00:00 0,8 -1,3 14 8 NNO 1029,9 60
12.12.2018 18:00:00 - - - - - - -
12.12.2018 17:00:00 - - - - - - -
12.12.2018 16:00:00 2,8 0,0 14 8 ONO 1029,2 60
12.12.2018 15:00:00 - - - - - - -
12.12.2018 14:00:00 - - - - - - -
12.12.2018 13:00:00 3,6 1,3 18 10 NO 1028,4 40
12.12.2018 12:00:00 - - - - - - -
12.12.2018 11:00:00 - - - - - - -
12.12.2018 10:00:00 1,9 0,4 14 8 NNO 1027,9 40
12.12.2018 09:00:00 - - - - - - -
12.12.2018 08:00:00 - - - - - - -
12.12.2018 07:00:00 2,8 0,4 18 10 NNO 1026,6 50
12.12.2018 06:00:00 - - - - - - -
12.12.2018 05:00:00 - - - - - - -
12.12.2018 04:00:00 - - - - - - -
12.12.2018 03:00:00 - - - - - - -
12.12.2018 02:00:00 - - - - - - -
12.12.2018 01:00:00 - - - - - - -
12.12.2018 00:00:00 - - - - - - -
11.12.2018 23:00:00 - - - - - - -
11.12.2018 22:00:00 - - - - - - -
11.12.2018 21:00:00 - - - - - - -
11.12.2018 20:00:00 - - - - - - -
11.12.2018 19:00:00 4,8 1,5 29 16 NNO 1019,9 65
11.12.2018 18:00:00 - - - - - - -
11.12.2018 17:00:00 - - - - - - -
11.12.2018 16:00:00 5,0 1,5 29 16 NNO 1017,8 82
11.12.2018 15:00:00 - - - - - - -
11.12.2018 14:00:00 - - - - - - -
11.12.2018 13:00:00 5,2 1,7 36 19 N 1015,5 82
11.12.2018 12:00:00 - - - - - - -
11.12.2018 11:00:00 - - - - - - -
11.12.2018 10:00:00 4,6 1,3 36 19 NO 1013,8 80
11.12.2018 09:00:00 - - - - - - -
11.12.2018 08:00:00 - - - - - - -
11.12.2018 07:00:00 4,9 1,7 36 19 N 1011,5 35
11.12.2018 06:00:00 - - - - - - -
11.12.2018 05:00:00 - - - - - - -
11.12.2018 04:00:00 - - - - - - -
11.12.2018 03:00:00 - - - - - - -
11.12.2018 02:00:00 - - - - - - -
11.12.2018 01:00:00 - - - - - - -
11.12.2018 00:00:00 - - - - - - -
10.12.2018 23:00:00 - - - - - - -
10.12.2018 22:00:00 - - - - - - -
10.12.2018 21:00:00 - - - - - - -
10.12.2018 20:00:00 - - - - - - -
10.12.2018 19:00:00 5,8 2,4 43 23 WNW 1003,5 35
10.12.2018 18:00:00 - - - - - - -
10.12.2018 17:00:00 - - - - - - -
10.12.2018 16:00:00 5,6 1,9 43 23 NW 1003,1 35
10.12.2018 15:00:00 - - - - - - -
10.12.2018 14:00:00 - - - - - - -
10.12.2018 13:00:00 5,9 2,0 43 23 WNW 1002,0 24
10.12.2018 12:00:00 - - - - - - -
10.12.2018 11:00:00 - - - - - - -
10.12.2018 10:00:00 5,5 2,0 50 27 WNW 1001,7 23
10.12.2018 09:00:00 - - - - - - -
10.12.2018 08:00:00 - - - - - - -
10.12.2018 07:00:00 5,7 1,8 47 25 WNW 1000,0 35
10.12.2018 06:00:00 - - - - - - -
10.12.2018 05:00:00 - - - - - - -
10.12.2018 04:00:00 - - - - - - -
10.12.2018 03:00:00 - - - - - - -
10.12.2018 02:00:00 - - - - - - -
10.12.2018 01:00:00 - - - - - - -
10.12.2018 00:00:00 - - - - - - -
09.12.2018 23:00:00 - - - - - - -
09.12.2018 22:00:00 - - - - - - -
09.12.2018 21:00:00 - - - - - - -
09.12.2018 20:00:00 - - - - - - -
09.12.2018 19:00:00 6,5 5,1 29 16 WNW 989,6 28
09.12.2018 18:00:00 - - - - - - -
09.12.2018 17:00:00 - - - - - - -
09.12.2018 16:00:00 6,9 5,5 29 16 WZW 986,9 24
09.12.2018 15:00:00 - - - - - - -
09.12.2018 14:00:00 - - - - - - -
09.12.2018 13:00:00 6,9 5,7 25 14 W 985,5 22
09.12.2018 12:00:00 - - - - - - -
09.12.2018 11:00:00 - - - - - - -
09.12.2018 10:00:00 6,8 5,4 29 16 W 984,1 24
09.12.2018 09:00:00 - - - - - - -
09.12.2018 08:00:00 - - - - - - -
09.12.2018 07:00:00 6,6 5,5 32 18 ZW 982,2 23
09.12.2018 06:00:00 - - - - - - -
09.12.2018 05:00:00 - - - - - - -
09.12.2018 04:00:00 - - - - - - -
09.12.2018 03:00:00 - - - - - - -
09.12.2018 02:00:00 - - - - - - -
09.12.2018 01:00:00 - - - - - - -
09.12.2018 00:00:00 - - - - - - -
08.12.2018 23:00:00 - - - - - - -
08.12.2018 22:00:00 - - - - - - -
08.12.2018 21:00:00 - - - - - - -
08.12.2018 20:00:00 - - - - - - -
08.12.2018 19:00:00 7,1 6,0 47 25 ZW 985,8 20
08.12.2018 18:00:00 - - - - - - -
08.12.2018 17:00:00 - - - - - - -
08.12.2018 16:00:00 7,2 6,0 47 25 ZW 986,9 15
08.12.2018 15:00:00 - - - - - - -
08.12.2018 14:00:00 - - - - - - -
08.12.2018 13:00:00 6,8 5,6 47 25 ZW 988,8 12
08.12.2018 12:00:00 - - - - - - -
08.12.2018 11:00:00 - - - - - - -

tt = temperatuur
td = dauwpunt
ff = windsnelheid
dd = windrichting
ppp = luchtdruk
vv = zicht

Weerstations in de omgeving